FW4679 Weather Reports


Display with metric or nautical units.
time (UTC)temp
F
wind
direction
speed
MPH
gust
MPH
rain 1hr
in
rain 24hr
in
rain mn
in
humidity
%
barometer
mb
20260906010037 69 29 2.0 3.0 0.00 0.02 0.02 74 1018.2
20260906004536 70 29 0.0 1.0 0.00 0.02 0.02 73 1018.1
20260906003035 70 29 0.0 3.0 0.00 0.02 0.02 71 1017.7
20260906001535 71 29 0.0 3.0 0.00 0.02 0.02 70 1017.5
20260906000034 71 29 0.0 5.0 0.00 0.02 0.02 70 1017.7
20260905234535 72 55 3.0 6.0 0.00 0.02 0.02 68 1017.6
20260905233033 73 360 0.0 3.0 0.00 0.02 0.02 67 1017.7
20260905231533 73 40 2.0 10.0 0.00 0.02 0.02 66 1017.7
20260905230034 73 30 3.0 7.0 0.00 0.02 0.02 65 1017.5
20260905224533 74 38 1.0 6.0 0.00 0.02 0.02 64 1017.3
20260905223031 74 339 3.0 10.0 0.00 0.02 0.02 62 1017.5
20260905221530 74 9 2.0 13.0 0.00 0.02 0.02 61 1017.2
20260905220030 74 18 4.0 9.0 0.00 0.02 0.02 62 1017.2
20260905214529 74 11 2.0 8.0 0.00 0.02 0.02 62 1016.9
20260905213029 74 336 2.0 5.0 0.00 0.02 0.02 63 1016.7
20260905211528 74 350 2.0 6.0 0.01 0.02 0.02 63 1016.8
20260905210029 74 9 3.0 8.0 0.01 0.02 0.02 62 1016.7
20260905204528 75 340 6.0 11.0 0.01 0.02 0.02 61 1016.7
20260905203027 75 321 6.0 11.0 0.01 0.02 0.02 61 1016.6
20260905201526 74 339 4.0 10.0 0.00 0.01 0.01 62 1016.7
20260905200033 74 344 3.0 12.0 0.00 0.01 0.01 63 1016.8
20260905194526 75 51 1.0 7.0 0.00 0.01 0.01 58 1016.7
20260905193026 75 328 3.0 9.0 0.00 0.01 0.01 61 1016.7
20260905191535 74 338 5.0 9.0 0.00 0.01 0.01 62 1016.8
20260905190033 75 28 2.0 9.0 0.00 0.01 0.01 60 1016.8
20260905184528 74 340 3.0 10.0 0.00 0.02 0.01 59 1016.8
20260905183020 74 346 3.0 13.0 0.00 0.02 0.01 62 1016.8
20260905181520 74 336 5.0 9.0 0.00 0.02 0.01 61 1016.8
20260905180025 74 340 2.0 6.0 0.00 0.02 0.01 63 1016.8
20260905174525 74 308 5.0 11.0 0.00 0.02 0.01 60 1016.8
20260905173017 74 355 1.0 9.0 0.00 0.02 0.01 61 1016.9
20260905171518 73 23 1.0 8.0 0.00 0.02 0.01 61 1017.1
20260905170019 73 355 2.0 6.0 0.00 0.02 0.01 65 1017.2
20260905164516 72 331 4.0 9.0 0.00 0.02 0.01 64 1017.1
20260905163015 73 360 2.0 8.0 0.00 0.02 0.01 63 1017.2
20260905161515 74 60 3.0 8.0 0.00 0.02 0.01 63 1017.2
20260905160019 72 43 3.0 10.0 0.00 0.02 0.01 64 1017.2
20260905154513 73 336 2.0 8.0 0.00 0.02 0.01 64 1017.4
20260905153011 72 333 2.0 10.0 0.00 0.02 0.01 65 1017.4
20260905151513 72 331 4.0 10.0 0.00 0.02 0.01 66 1017.5
20260905150006 71 350 4.0 10.0 0.00 0.02 0.01 69 1017.5
20260905144515 70 336 6.0 16.0 0.00 0.02 0.01 69 1017.4
20260905143004 70 347 4.0 13.0 0.00 0.02 0.01 71 1017.3
20260905141614 69 340 2.0 10.0 0.00 0.02 0.01 75 1017.4
20260905140106 67 327 3.0 9.0 0.00 0.02 0.01 81 1017.5
20260905134557 66 73 5.0 12.0 0.00 0.02 0.01 86 1017.3
20260905133056 65 346 3.0 8.0 0.00 0.02 0.01 90 1017.4
20260905131614 64 119 1.0 4.0 0.00 0.02 0.01 91 1017.4
20260905130055 62 216 0.0 2.0 0.00 0.02 0.01 91 1017.6
20260905124555 62 216 0.0 3.0 0.00 0.02 0.01 91 1017.8
20260905123056 61 217 1.0 3.0 0.00 0.02 0.01 91 1018.0
20260905121553 59 217 0.0 2.0 0.00 0.02 0.01 90 1017.9
20260905120052 59 217 1.0 5.0 0.00 0.02 0.01 90 1017.9
20260905114552 59 217 1.0 3.0 0.00 0.02 0.01 90 1017.4
20260905113049 59 216 0.0 2.0 0.00 0.02 0.01 90 1017.2
20260905111549 58 216 1.0 3.0 0.00 0.02 0.01 90 1017.2
20260905110048 58 262 2.0 3.0 0.00 0.02 0.01 90 1017.1
20260905104554 58 262 1.0 3.0 0.00 0.02 0.01 90 1016.9
20260905103051 59 262 2.0 3.0 0.00 0.02 0.01 90 1016.6
20260905101546 58 262 0.0 2.0 0.00 0.02 0.01 90 1016.4
20260905100052 58 262 1.0 4.0 0.00 0.02 0.01 89 1016.2
20260905094545 59 269 0.0 2.0 0.00 0.02 0.01 89 1016.3
20260905093042 59 269 0.0 2.0 0.00 0.02 0.01 89 1016.2
20260905091544 59 269 1.0 2.0 0.00 0.02 0.01 89 1016.2
20260905084541 60 5 1.0 3.0 0.00 0.02 0.01 89 1016.2
20260905083046 60 5 0.0 2.0 0.00 0.02 0.01 89 1016.2
20260905081546 60 5 2.0 4.0 0.00 0.02 0.01 88 1016.4
20260905080044 60 5 0.0 3.0 0.00 0.02 0.01 88 1016.3
20260905074533 61 5 2.0 3.0 0.01 0.03 0.01 88 1016.5
20260905073036 61 5 1.0 3.0 0.01 0.03 0.01 88 1016.4
20260905071530 61 5 1.0 2.0 0.01 0.03 0.01 88 1016.5
20260905070031 62 5 1.0 2.0 0.01 0.03 0.01 88 1016.6
20260905064527 62 5 1.0 3.0 0.00 0.02 0.00 88 1016.7
20260905063025 63 5 0.0 2.0 0.00 0.02 0.00 88 1016.8
20260905061523 62 5 1.0 3.0 0.00 0.02 0.00 87 1016.8
20260905060030 62 5 1.0 3.0 0.00 0.02 0.00 87 1016.9
20260905054533 63 5 1.0 2.0 0.00 0.02 0.00 87 1016.9
20260905053021 63 5 1.0 3.0 0.00 0.02 0.00 86 1017.0
20260905051525 64 5 1.0 3.0 0.00 0.02 0.00 85 1017.1
20260905050017 64 5 2.0 3.0 0.00 0.02 0.00 85 1017.1
20260905044513 65 5 2.0 3.0 0.00 0.02 0.00 84 1017.3
20260905043009 66 5 2.0 3.0 0.00 0.02 0.00 82 1017.3
20260905041506 67 5 0.0 2.0 0.00 0.02 0.00 79 1017.1
20260905040004 68 5 0.0 1.0 0.00 0.02 0.02 78 1017.2
20260905034506 69 5 0.0 2.0 0.00 0.02 0.02 77 1017.0
20260905033002 69 5 1.0 2.0 0.00 0.02 0.02 77 1017.0
20260905031614 70 5 0.0 2.0 0.00 0.02 0.02 75 1017.0
20260905030101 70 5 1.0 2.0 0.00 0.02 0.02 75 1016.9
20260905030003 71 5 1.0 2.0 0.00 0.02 0.02 74 1017.0
20260905024600 71 5 0.0 2.0 0.00 0.02 0.02 72 1016.8
20260905023100 71 5 0.0 3.0 0.00 0.02 0.02 72 1016.8
20260905021600 71 5 0.0 3.0 0.00 0.02 0.02 72 1017.0
20260905014558 72 5 1.0 4.0 0.00 0.02 0.02 72 1017.1
20260905013058 72 340 1.0 5.0 0.00 0.02 0.02 71 1017.3
20260905011559 73 339 0.0 5.0 0.00 0.02 0.02 71 1017.1